#timestamp,LO_Frequency,Hit,StdDev 
1705561215.2,286047000.8,N
1705561235.1,286047000.9,N
1705561236.0,286047000.9,N
1705561255.8,286046998.9,N
1705561275.7,286046998.3,N
1705561295.5,286046996.5,Y
1705561315.3,286046998.6,P
1705561335.2,286046999.3,N
1705561355.0,286046998.4,P
1705561355.9,286046998.4,N
1705561375.8,286046998.6,N
1705561395.6,286046998.3,Y
1705561415.4,286046999.8,P
1705561435.3,286047001.2,N
1705561455.1,286047000.4,N
1705561475.8,286047001.0,N
1705561495.7,286046998.3,N
1705561515.5,286047001.0,N
1705561535.4,286047000.5,N
1705561555.2,286047000.8,N
1705561575.0,286046999.7,N
1705561575.9,286046999.7,N
1705561595.8,286047002.5,N
1705561615.6,286047002.8,N
1705561635.4,286047000.3,N
1705561655.3,286047000.9,N
1705561675.1,286047001.0,N
1705561695.9,286047000.8,N
1705561715.7,286047000.4,N
1705561735.5,286047001.0,N
1705561755.4,286047000.8,N
1705561775.2,286047000.3,N
1705561795.0,286047000.2,N
1705561795.9,286047000.2,N
1705561815.8,286046999.9,N
1705561835.6,286047001.1,N
1705561855.5,286047000.8,N
1705561875.3,286047000.0,N
1705561895.1,286046998.5,N
1705561915.9,286047000.9,N
1705561935.7,286046998.3,N
1705561955.5,286046998.8,N
1705561975.4,286047001.0,N
1705561995.2,286046999.7,N
1705562015.1,286047002.3,N
1705562016.0,286047002.3,N
1705562035.8,286047000.0,N
1705562055.6,286046999.9,N
1705562075.5,286047001.5,N
1705562095.3,286047001.5,N
1705562115.2,286047001.9,N
1705562135.9,286047003.5,Y
1705562155.7,286047001.7,P
1705562175.6,286047001.7,P
1705562195.4,286047004.0,P
1705562215.2,286047002.6,N
1705562235.1,286047000.2,N
1705562236.0,286047000.2,N
1705562255.8,286047000.5,N
1705562275.7,286047000.0,N
1705562295.5,286047000.3,N
1705562315.4,286047000.8,N
1705562335.2,286047000.3,N
1705562355.0,286047001.2,N
1705562355.9,286047001.2,N
1705562375.8,286046998.5,N
1705562395.6,286046998.1,N
1705562415.5,286046998.6,N
1705562435.3,286047000.8,N
1705562455.1,286046998.3,N
1705562475.9,286046998.6,N
1705562495.7,286046996.9,N
1705562515.5,286046996.7,N
1705562535.4,286046997.0,N
1705562555.2,286046998.9,N
1705562575.1,286046996.5,N
1705562576.0,286046996.5,N
1705562595.8,286046997.1,N
1705562615.6,286046997.2,N
1705562635.5,286046999.3,N
1705562655.3,286046998.9,N
1705562675.2,286046999.4,N
1705562695.9,286046996.8,N
1705562715.7,286046997.2,N
1705562735.6,286046997.3,N
1705562755.4,286046997.3,N
1705562775.3,286046997.8,N
1705562795.1,286046995.3,Y
1705562815.8,286046999.2,P
1705562835.7,286046998.8,P
1705562855.5,286046999.2,P
1705562875.4,286046998.2,Y
1705562895.2,286047001.0,P
1705562915.0,286047000.3,N
1705562915.9,286047000.3,N
1705562935.8,286047002.0,N
1705562955.6,286047001.8,N
1705562975.5,286047001.9,N
1705562995.3,286047000.3,N
1705563015.1,286047000.3,N
1705563035.9,286047001.2,N
1705563055.7,286047000.7,N
1705563075.5,286046998.3,N
1705563095.4,286046999.3,N
1705563115.2,286046999.6,N
1705563135.1,286046999.0,N
1705563136.0,286046999.0,N
1705563155.8,286046996.7,N
1705563175.6,286046999.6,N
1705563195.5,286046996.8,N
1705563215.3,286046997.5,N
1705563235.1,286046997.5,N
1705563255.9,286046997.4,N
1705563275.7,286046996.7,N
1705563295.6,286046997.2,N
1705563315.4,286046997.3,N
1705563335.2,286046996.5,N
1705563355.1,286046997.8,N
1705563356.0,286046997.8,N
1705563375.8,286046999.6,N
1705563395.6,286046999.4,N
1705563415.5,286046999.5,N
1705563435.3,286046996.5,N
1705563455.2,286046997.7,N
1705563475.9,286046998.0,N
1705563495.7,286046995.3,N
1705563515.6,286046995.8,N
1705563535.4,286046995.6,N
1705563555.3,286046993.5,Y
1705563575.1,286046997.8,P
1705563576.0,286046997.8,P
1705563595.8,286046997.5,P
1705563615.7,286046997.9,Y
1705563635.5,286046996.7,P
1705563655.3,286046998.8,N
1705563675.2,286046999.0,N
1705563695.0,286046996.5,Y
1705563695.9,286046996.5,P
1705563715.8,286046998.5,N
1705563735.6,286047000.8,N
1705563755.4,286046998.2,N
1705563775.3,286047000.8,N
1705563795.1,286047000.6,N
1705563815.9,286046998.3,N
1705563835.7,286046998.4,N
1705563855.5,286046998.8,N
1705563875.4,286046998.7,N
1705563895.2,286047001.2,N
1705563915.1,286046998.8,N
1705563916.0,286046998.8,N
1705563935.8,286046997.1,N
1705563955.7,286046996.9,N
1705563975.5,286046999.1,N
1705563995.3,286046998.9,N
1705564015.2,286046999.2,N
1705564035.0,286046998.8,N
1705564035.9,286046998.8,N
1705564055.7,286046998.6,N
1705564075.6,286046996.6,N
1705564095.4,286046996.6,N
1705564115.3,286046996.5,N
1705564135.1,286046999.6,N
1705564155.8,286046998.7,N
1705564175.7,286046999.2,N
1705564195.5,286046999.2,N
1705564215.4,286046996.5,N
1705564235.2,286046999.5,N
1705564255.0,286046998.8,N
1705564255.9,286046998.8,N
1705564275.8,286046999.5,N
1705564295.6,286046998.8,N
1705564315.4,286046999.3,N
1705564335.3,286046997.2,N
1705564355.1,286046999.6,N
1705564375.9,286046999.2,N
1705564395.7,286046996.5,Y
1705564415.5,286046998.7,P
1705564435.4,286046999.5,P
1705564455.2,286046998.8,P
1705564475.1,286047001.2,Y
1705564476.0,286047001.2,P
1705564495.8,286047000.5,N
1705564515.6,286047000.3,N
1705564535.5,286046999.9,N
1705564555.3,286046998.2,N
1705564575.1,286046998.3,N
1705564595.9,286046998.4,N
1705564615.7,286046999.2,N
1705564635.6,286046998.5,N
1705564655.4,286046998.9,N
1705564675.2,286046998.1,N
1705564695.1,286046998.2,N
1705564696.0,286046998.2,N
1705564715.8,286046998.7,N
1705564735.6,286046998.9,N
1705564755.5,286046999.4,N
1705564775.3,286046996.5,Y
1705564795.6,286046998.6,P
